This demonstration page uses our WeatherBlox Daily Observations layout. Learn more.

Hourly Observations for August 9, 2019

Temp ( °F °C ) Dew Point ( °F °C ) Humidity (%) Winds ( mph kmh ) Pressure ( in mb ) Visibility ( mi km ) Precip ( " mm )
12:15 am 00:15 Partly Cloudy with Mist and Fog 71 21.5 71 21.5 100 100 Calm 29.94 1014 4 6.437376 0 0
12:35 am 00:35 Clear with Mist and Fog 71 21.7 71 21.7 100 100 E 3 6 29.91 1013 4 6.437376 0 0
12:55 am 00:55 Clear with Mist and Fog 71 21.9 71 21.6 98 98 E 5 7 29.91 1013 5 8.04672 0 0
1:15 am 01:15 Clear with Mist and Fog 71 21.7 71 21.6 99 99 ESE 5 7 29.91 1013 5 8.04672 0 0
1:35 am 01:35 Mostly Cloudy with Mist and Fog 71 21.8 71 21.5 98 98 ENE 5 7 29.91 1013 5 8.04672 0 0
1:55 am 01:55 Partly Cloudy with Mist and Fog 70 21 70 21 100 100 ENE 5 7 29.91 1013 3 4.828032 0 0
2:15 am 02:15 Clear with Mist and Fog 69 20.8 69 20.8 100 100 ENE 5 7 29.91 1013 3 4.828032 0 0
2:35 am 02:35 Clear with Mist and Fog 70 20.9 70 20.9 100 100 SE 3 6 29.91 1013 4 6.437376 0 0
2:55 am 02:55 Clear with Mist and Fog 69 20.3 69 20.3 100 100 ESE 5 7 29.91 1013 3 4.828032 0 0
3:15 am 03:15 Clear with Mist and Fog 69 20.7 69 20.6 99 99 NE 5 7 29.91 1013 5 8.04672 0 0
3:35 am 03:35 Clear with Mist and Fog 68 20 68 20 100 100 E 5 7 29.91 1013 2 3.218688 0 0
3:55 am 03:55 Mostly Cloudy with Mist and Fog 68 20.1 68 20.1 100 100 E 3 6 29.91 1013 3 4.828032 0 0
4:15 am 04:15 Cloudy with Mist and Fog 70 21 70 20.9 99 99 ESE 5 7 29.91 1013 4 6.437376 0 0
4:35 am 04:35 Cloudy with Mist and Fog 70 21.1 70 21 99 99 SE 3 6 29.91 1013 5 8.04672 0 0
4:55 am 04:55 Partly Cloudy with Mist and Fog 70 21.1 70 20.9 99 99 E 3 6 29.91 1013 4 6.437376 0 0
5:15 am 05:15 Clear with Mist and Fog 70 21 69 20.8 99 99 ESE 5 7 29.94 1014 4 6.437376 0 0
5:35 am 05:35 Mostly Cloudy with Mist and Fog 70 21.1 69 20.8 98 98 ESE 5 7 29.94 1014 5 8.04672 0 0
5:55 am 05:55 Cloudy 70 21.1 69 20.6 97 97 SE 5 7 29.94 1014 7 11.265408 0 0
6:15 am 06:15 Cloudy with Mist and Fog 70 21 69 20.6 98 98 SE 5 7 29.94 1014 5 8.04672 0 0
6:35 am 06:35 Mostly Cloudy 69 20.8 69 20.4 98 98 SE 3 6 29.94 1014 7 11.265408 0 0
6:55 am 06:55 Mostly Cloudy with Mist and Fog 69 20.7 68 20.2 97 97 SSE 5 7 29.94 1014 5 8.04672 0 0
7:15 am 07:15 Partly Cloudy with Mist and Fog 69 20.8 69 20.4 98 98 SE 3 6 29.94 1014 5 8.04672 0 0
7:35 am 07:35 Sunny 70 21 69 20.3 96 96 ESE 3 6 29.94 1014 7 11.265408 0 0
7:55 am 07:55 Partly Cloudy 70 21 68 20.2 95 95 SSE 3 6 29.94 1014 7 11.265408 0 0
8:15 am 08:15 Mostly Cloudy 70 21.1 69 20.4 96 96 Calm 29.94 1014 7 11.265408 0.01 0.254
8:35 am 08:35 Partly Cloudy 71 21.9 69 20.4 91 91 Calm 29.94 1014 7 11.265408 0.01 0.254
8:55 am 08:55 Partly Cloudy 72 22.1 69 20.6 91 91 SSE 6 9 29.94 1014 10 16.09344 0.01 0.254
9:15 am 09:15 Mostly Cloudy 73 23 70 21.1 89 89 SSE 7 11 29.94 1014 7 11.265408 0 0
9:35 am 09:35 Cloudy 74 23.5 70 21.1 86 86 S 8 13 29.94 1014 10 16.09344 0 0
9:55 am 09:55 Partly Cloudy 76 24.4 70 21.1 82 82 S 12 19 29.91 1013 10 16.09344 0 0
10:15 am 10:15 Sunny 77 25 70 20.9 78 78 S 10 17 29.91 1013 10 16.09344 0 0
10:35 am 10:35 Partly Cloudy 78 25.7 69 20.7 74 74 S 13 20 29.91 1013 10 16.09344 0 0
10:55 am 10:55 Sunny 79 26 69 20.6 72 72 S 13 20 29.91 1013 10 16.09344 0 0
11:15 am 11:15 Sunny 79 26.2 69 20.5 71 71 S 15 24 29.91 1013 10 16.09344 0 0
11:35 am 11:35 Partly Cloudy 80 26.9 69 20.6 68 68 S 15 24 29.91 1013 10 16.09344 0 0
11:55 am 11:55 Partly Cloudy 80 26.8 69 20.5 68 68 S 13 20 29.91 1013 10 16.09344 0 0
12:15 pm 12:15 Partly Cloudy 80 26.7 69 20.7 70 70 S 12 19 29.88 1012 10 16.09344 0 0
12:35 pm 12:35 Partly Cloudy 80 26.9 69 20.5 68 68 S 12 19 29.88 1012 10 16.09344 0 0
12:55 pm 12:55 Mostly Cloudy 81 27.4 69 20.7 67 67 S 14 22 29.85 1011 10 16.09344 0 0
1:15 pm 13:15 Partly Cloudy 83 28.5 69 20.8 63 63 S 14 22 29.85 1011 10 16.09344 0 0
1:35 pm 13:35 Partly Cloudy 84 28.9 70 21.1 63 63 S 15 24 29.85 1011 10 16.09344 0 0
1:55 pm 13:55 Mostly Cloudy 82 27.9 69 20.5 64 64 SSE 14 22 29.85 1011 10 16.09344 0 0
2:15 pm 14:15 Mostly Cloudy 84 28.8 69 20.3 60 60 SSE 12 19 29.85 1011 10 16.09344 0 0
2:35 pm 14:35 Mostly Cloudy 83 28.2 67 19.7 60 60 SSE 13 20 29.83 1010 10 16.09344 0 0
2:55 pm 14:55 Mostly Cloudy 84 29 69 20.4 60 60 SSE 15 24 29.83 1010 10 16.09344 0 0
3:15 pm 15:15 Partly Cloudy 85 29.2 67 19.7 57 57 SSE 15 24 29.83 1010 10 16.09344 0 0
3:35 pm 15:35 Mostly Cloudy 85 29.2 67 19.4 56 56 S 17 28 29.83 1010 10 16.09344 0 0
3:55 pm 15:55 Partly Cloudy 85 29.4 67 19.3 55 55 SSE 16 26 29.8 1009 10 16.09344 0 0
4:15 pm 16:15 Sunny 86 29.8 67 19.4 54 54 SSE 18 30 29.8 1009 10 16.09344 0 0
4:35 pm 16:35 Sunny 85 29.6 67 19.5 55 55 S 14 22 29.8 1009 10 16.09344 0 0
4:55 pm 16:55 Partly Cloudy 86 30 67 19.5 53 53 S 15 24 29.77 1008 10 16.09344 0 0
5:15 pm 17:15 Partly Cloudy 84 29 67 19.6 57 57 S 12 19 29.77 1008 10 16.09344 0 0
5:35 pm 17:35 Partly Cloudy 84 28.8 67 19.3 56 56 S 12 19 29.77 1008 10 16.09344 0 0
5:55 pm 17:55 Mostly Cloudy 85 29.2 68 19.9 57 57 SSE 12 19 29.77 1008 10 16.09344 0 0
6:15 pm 18:15 Cloudy 85 29.3 68 20 57 57 SSE 13 20 29.77 1008 10 16.09344 0 0
6:35 pm 18:35 Mostly Cloudy 85 29.2 68 20.2 58 58 S 9 15 29.77 1008 10 16.09344 0 0
6:55 pm 18:55 Partly Cloudy 85 29.2 68 20 58 58 S 14 22 29.77 1008 10 16.09344 0 0
7:15 pm 19:15 Sunny 84 28.7 68 19.9 59 59 SSE 9 15 29.77 1008 10 16.09344 0 0
7:35 pm 19:35 Sunny 83 28.2 68 20.1 61 61 S 12 19 29.77 1008 10 16.09344 0 0
7:55 pm 19:55 Sunny 82 27.6 69 20.3 64 64 SSE 10 17 29.77 1008 10 16.09344 0 0
8:15 pm 20:15 Sunny 80 26.7 69 20.6 69 69 SSE 8 13 29.77 1008 10 16.09344 0 0
8:35 pm 20:35 Sunny 79 25.9 69 20.5 72 72 SSE 9 15 29.8 1009 10 16.09344 0 0
8:55 pm 20:55 Clear 78 25.5 69 20.5 74 74 SSE 10 17 29.8 1009 10 16.09344 0 0
9:15 pm 21:15 Clear 77 24.8 69 20.5 77 77 SE 9 15 29.8 1009 10 16.09344 0 0
9:35 pm 21:35 Clear 76 24.7 69 20.4 77 77 SE 9 15 29.8 1009 10 16.09344 0 0
9:55 pm 21:55 Clear 76 24.5 69 20.4 78 78 SSE 12 19 29.8 1009 10 16.09344 0 0
10:15 pm 22:15 Clear 75 24.1 69 20.5 80 80 SSE 12 19 29.83 1010 10 16.09344 0 0
10:35 pm 22:35 Clear 75 23.8 69 20.5 82 82 SSE 10 17 29.83 1010 10 16.09344 0 0
10:55 pm 22:55 Clear 74 23.5 69 20.6 84 84 SSE 12 19 29.83 1010 10 16.09344 0 0
11:15 pm 23:15 Clear 74 23.2 69 20.7 86 86 SSE 10 17 29.83 1010 10 16.09344 0 0
11:35 pm 23:35 Clear 73 23 69 20.8 87 87 SSE 9 15 29.8 1009 10 16.09344 0 0
11:55 pm 23:55 Clear 73 22.7 69 20.8 89 89 SSE 9 15 29.8 1009 10 16.09344 0 0

Powered by AerisWeather